Location: Casalecchio di Reno
(44.4760°N, 11.2757°E)
Time: 10:10:19
(UTC+02:00)

AO-73 - Pass Details

Date: 18 June 2024
Orbit: 555 x 624 km, 97.7° (Epoch: 17 July)

Event Time Altitude Azimuth Distance (km) Brightness Sun altitude
Rises 04:29:04 0° 12° (NNE) 2,760 ? -9.1°
Reaches altitude 10° 04:31:13 10° 12° (NNE) 1,854 ? -8.8°
Maximum altitude 04:35:14 89° 289° (WNW) 563 ? -8.3°
Drops below altitude 10° 04:39:12 10° 194° (SSW) 1,835 ? -7.8°
Enters shadow 04:39:59 - 195° (SSW) 2,167 ? -7.7°
